User: anonymous   Login
Location: Unspecified
(0.0000°N, 0.0000°E)
Time: 04:00:15
(UTC+02:00)
Language:

Cosmos 407 Rocket - Orbit

View from above orbital plane
View from above orbital plane
View from above satellite
View from above satellite

Ground track
Ground track

The orbit data is extracted from the following two-line orbital elements,

1  5175U 71035B   17177.58787169 +.00000097 +00000-0 +40705-4 0  9994
2  5175 074.0462 191.8735 0029241 036.3972 323.9162 14.37859404416298
Epoch (UTC): 26 June 2017 14:06:32
Eccentricity: 0.0029241
inclination: 74.0462°
perigee height: 744 km
apogee height: 786 km
right ascension of ascending node: 191.8735°
argument of perigee: 36.3972°
revolutions per day: 14.37859404
mean anomaly at epoch: 323.9162°
orbit number at epoch: 41629

The dashed part of the orbit path shows where the satellite is in the earth's shadow,  

DLR